Regional Weather Roundup
Issued by NWS

Home | Current Version | Previous Version | Text Only | Print | Product List | Glossary Off
Versions: 1 2 3 4 5 6 7 8 9 10 11 12 13 14 15 16 17 18 19 20 21 22 23 24 25 26 27

000
ASUS45 KBOU 161907
RWRCO

WEATHER ROUNDUP FOR COLORADO
NATIONAL WEATHER SERVICE DENVER/BOULDER CO
1200 PM MST MON JAN 16 2017

NOTE: "FAIR" INDICATES FEW OR NO CLOUDS BELOW 12000 FEET WITH NO
SIGNIFICANT WEATHER AND/OR OBSTRUCTIONS TO VISIBILITY.

COZ001>005-013-030-031-162000-
...NORTHWEST COLORADO...

CITY           SKY/WX    TMP DP  RH WIND       PRES   REMARKS
CRAIG          CLOUDY    19  12  74 W7        30.15F WCI  10
HAYDEN         CLOUDY    16  12  86 W6        30.12F WCI   7
MEEKER         FAIR      24  14  65 S3        30.12F
MOUNT WERNER   NOT AVBL
STEAMBOAT SPGS CLOUDY    21  19  91 SW3       30.10S
WALDEN           N/A    N/A N/A N/A CALM      30.06F
$$

COZ006>008-011-162000-
...WEST CENTRAL VALLEYS...

CITY           SKY/WX    TMP DP  RH WIND       PRES   REMARKS
GRAND JUNCTION FAIR      39  19  44 S3        30.07F
MONTROSE       CLOUDY    34  20  56 NW8       30.08S WCI  27
EAGLE          MOSUNNY   30  25  80 CALM      30.06F
RIFLE          FAIR      32  19  58 NW6       30.08F WCI  26
DELTA          CLOUDY    37  27  66 CALM      30.07F
NUCLA          FAIR      37  18  44 NW3       30.04F
$$

COZ017>023-064>068-162000-
...SOUTHWEST COLORADO...

CITY           SKY/WX    TMP DP  RH WIND       PRES   REMARKS
DURANGO        CLOUDY    35  29  78 SE7       29.97F WCI  29
CORTEZ         CLOUDY    38  29  70 W10       29.98S
PAGOSA SPRINGS LGT SNOW  34  32  93 S3        29.97F
TELLURIDE      CLOUDY    28  27  99 W7        29.99S WCI  20
WOLF CREEK PAS CLOUDY    21  21 100 N10G16    30.04S WCI  10
$$

COZ009-010-012-014-032>034-037-058>063-162000-
...CENTRAL COLORADO...

CITY           SKY/WX    TMP DP  RH WIND       PRES   REMARKS
ASPEN          FAIR      30  24  78 N3        30.00F
BUENA VISTA    CLOUDY    36  26  68 S3        29.99F
COPPER MTN     CLOUDY    27  21  80 MISG      30.02F
BERTHOUD PASS  NOT AVBL
COTTONWOOD PAS LGT SNOW  32  28  86 SE7       30.00F WCI  26
GUNNISON       FAIR      26  23  88 CALM      30.01F
KREMMLING      FAIR      34  27  75 CALM      30.06F
LEADVILLE      CLOUDY    32  19  58 N6        29.97F WCI  26
MONARCH PASS   CLOUDY    21  19  93 MISG      30.04F
SALIDA         CLOUDY    37  32  84 CALM      30.07F
SUNLIGHT       CLOUDY    23  21  93 NE6       30.05F FOG     WCI  16
WILKERSON PASS CLOUDY   N/A N/A N/A NE12G20   30.02F
$$

COZ069>075-162000-
...SAN LUIS VALLEY/SANGRE DE CRISTO MOUNTAINS...

CITY           SKY/WX    TMP DP  RH WIND       PRES   REMARKS
ALAMOSA        LGT SNOW  33  33 100 SW3       29.96S FOG
LA VETA PASS   LGT SNOW  28  23  80 S5        29.99S WCI  23
SAGUACHE       CLOUDY    36  32  87 SE6       29.96F
$$

COZ035-036-038>040-162000-
...NORTHERN COLORADO FRONT RANGE...

CITY           SKY/WX    TMP DP  RH WIND       PRES   REMARKS
DENVER INTL AP CLOUDY    31  27  85 NW14      30.08F WCI  21
DMNS CITY PARK   N/A     33  31  93 N5G12     30.10F WCI  28
AURORA         FLURRIES  30  29  99 NW10      30.09F WCI  21
FRONT RANGE AP NOT AVBL
ERIE MUNI ARPT CLOUDY    33  30  88 CALM      30.09F
BOULDER MUN AP CLOUDY    34  32  93 CALM      30.09F
CENTENNIAL     LGT SNOW  29  26  89 N10       30.08F FOG     WCI  20
BROOMFIELD     LGT SNOW  32  30  93 CALM      30.10F
FORT COLLINS   PTSUNNY   37  27  65 N6        30.09F
LONGMONT       CLOUDY    38  32  79 SW3       30.11F
$$

COZ041-046-047-076>085-087-088-162000-
...PIKES PEAK/PALMER DIVIDE AND SOUTHERN FOOTHILLS...

CITY           SKY/WX    TMP DP  RH WIND       PRES   REMARKS
COLO. SPRINGS  CLOUDY    32  23  69 NW24G38   30.01S WCI  19
A. F. ACADEMY  DRIZZLE   32  23  69 N25G36    30.00F WCI  19
SCHRIEVER AFB  NOT AVBL
ELLICOTT       PTSUNNY  N/A N/A N/A N31G39    29.97F
FALCON         FAIR      29  22  74 N22G38    29.98S WCI  16
FORT CARSON    NOT AVBL
LIMON          LGT SNOW  29  27  92 NW23G37   30.00F FOG     WCI  15
MONUMENT HILL  CLOUDY    27  23  86 NW16G26   30.05F FOG     WCI  14
TRINIDAD       SNOW      32  29  88 N14G20    30.02F VSB 1/4 WCI  22
$$

COZ042>045-048>051-090-091-162000-
...NORTHEAST COLORADO...

CITY           SKY/WX    TMP DP  RH WIND       PRES   REMARKS
GREELEY ARPT   CLOUDY    39  23  52 N9        30.10F
AKRON          LGT SNOW  32  25  75 N22G30    30.03R WCI  19
BURLINGTON     CLOUDY    33  31  92 N20G26    29.95S FOG     WCI  21
WRAY           LGT SNOW  34  34 100 N22       29.99S WCI  22
STERLING       CLOUDY    36  27  69 N15       30.04S
HOLYOKE        FAIR      37  32  81 N18       30.01S
FORT MORGAN    CLOUDY    38  26  62 NW10G16   30.07S
$$

COZ086-089-092>099-162000-
...SOUTHEAST COLORADO...

CITY           SKY/WX    TMP DP  RH WIND       PRES   REMARKS
PUEBLO         CLOUDY    38  28  67 N21G29    30.01S
LA JUNTA       LGT SNOW  35  31  85 NW16      30.01S VSB 3/4 WCI  25
LAMAR          LGT SNOW  34  31  88 W8        29.96S FOG     WCI  27
SPRINGFIELD      N/A     33  31  92 NW20      29.94F WCI  21
$$




USA.gov is the U.S. government's official web portal to all federal, state and local government web resources and services.